| time (UTC) | temp F | wind direction | speed knots | gust knots | rain 1hr in | rain 24hr in | rain mn in | humidity % | barometer mb |
| 20260503021539 | 56 | 150 | 0.0 | 1.7 | 0.00 | 0.01 | 0.01 | 85 | 1012.2 |
| 20260503020034 | 56 | 150 | 0.0 | 2.6 | 0.00 | 0.01 | 0.01 | 84 | 1012.0 |
| 20260503014532 | 57 | 87 | 0.0 | 3.5 | 0.00 | 0.01 | 0.01 | 84 | 1012.2 |
| 20260503013030 | 57 | 296 | 0.0 | 1.7 | 0.00 | 0.01 | 0.01 | 83 | 1012.4 |
| 20260503011529 | 57 | 296 | 0.0 | 0.9 | 0.00 | 0.01 | 0.01 | 83 | 1012.4 |
| 20260503010031 | 57 | 296 | 0.0 | 0.9 | 0.01 | 0.01 | 0.01 | 82 | 1012.4 |
| 20260503004527 | 57 | 296 | 0.0 | 1.7 | 0.01 | 0.01 | 0.01 | 82 | 1012.4 |
| 20260503003025 | 57 | 296 | 0.0 | 1.7 | 0.01 | 0.01 | 0.01 | 81 | 1012.8 |
| 20260503001520 | 58 | 282 | 0.0 | 4.3 | 0.01 | 0.01 | 0.01 | 80 | 1013.0 |
| 20260503000028 | 59 | 290 | 0.0 | 3.5 | 0.00 | 0.00 | 0.00 | 77 | 1013.5 |
| 20260502234514 | 59 | 288 | 0.9 | 4.3 | 0.00 | 0.00 | 0.00 | 75 | 1014.2 |
| 20260502233011 | 59 | 94 | 0.0 | 1.7 | 0.00 | 0.00 | 0.00 | 75 | 1014.3 |
| 20260502231509 | 59 | 93 | 0.0 | 1.7 | 0.00 | 0.00 | 0.00 | 75 | 1014.3 |
| 20260502230008 | 59 | 93 | 0.0 | 0.9 | 0.00 | 0.00 | 0.00 | 74 | 1014.0 |
| 20260502224507 | 59 | 93 | 0.0 | 2.6 | 0.00 | 0.00 | 0.00 | 74 | 1013.7 |
| 20260502223004 | 59 | 94 | 0.0 | 0.9 | 0.00 | 0.00 | 0.00 | 73 | 1013.8 |
| 20260502221502 | 59 | 94 | 0.0 | 1.7 | 0.00 | 0.00 | 0.00 | 72 | 1013.8 |
| 20260502220100 | 60 | 94 | 0.0 | 1.7 | 0.00 | 0.00 | 0.00 | 71 | 1013.9 |
| 20260502214602 | 60 | 94 | 0.0 | 2.6 | 0.00 | 0.00 | 0.00 | 71 | 1014.1 |
| 20260502213055 | 60 | 95 | 0.0 | 7.0 | 0.00 | 0.00 | 0.00 | 71 | 1014.3 |
| 20260502211555 | 60 | 355 | 0.0 | 1.7 | 0.00 | 0.00 | 0.00 | 70 | 1014.5 |
| 20260502210054 | 60 | 355 | 0.0 | 2.6 | 0.00 | 0.00 | 0.00 | 70 | 1014.3 |
| 20260502204608 | 61 | 35 | 0.0 | 2.6 | 0.00 | 0.00 | 0.00 | 69 | 1014.5 |
| 20260502203112 | 61 | 306 | 0.0 | 0.9 | 0.00 | 0.00 | 0.00 | 68 | 1014.4 |
| 20260502201549 | 61 | 306 | 0.9 | 2.6 | 0.00 | 0.00 | 0.00 | 68 | 1014.6 |
| 20260502200049 | 62 | 306 | 0.0 | 1.7 | 0.00 | 0.00 | 0.00 | 67 | 1014.8 |
| 20260502194553 | 62 | 303 | 0.9 | 2.6 | 0.00 | 0.00 | 0.00 | 68 | 1014.9 |
| 20260502193049 | 63 | 302 | 0.9 | 2.6 | 0.00 | 0.00 | 0.00 | 68 | 1014.8 |
| 20260502191551 | 64 | 297 | 0.9 | 1.7 | 0.00 | 0.00 | 0.00 | 66 | 1014.7 |
| 20260502190046 | 65 | 297 | 0.0 | 2.6 | 0.00 | 0.00 | 0.00 | 63 | 1014.6 |
| 20260502184545 | 66 | 297 | 0.0 | 1.7 | 0.00 | 0.00 | 0.00 | 64 | 1014.7 |
| 20260502183045 | 67 | 292 | 0.9 | 2.6 | 0.00 | 0.00 | 0.00 | 64 | 1014.6 |
| 20260502181603 | 68 | 292 | 0.0 | 5.2 | 0.00 | 0.00 | 0.00 | 63 | 1014.7 |
| 20260502163035 | 74 | 340 | 2.6 | 9.6 | 0.00 | 0.00 | 0.00 | 60 | 1015.1 |
| 20260502161532 | 75 | 259 | 3.5 | 7.8 | 0.00 | 0.00 | 0.00 | 55 | 1015.2 |
| 20260502151516 | 74 | 277 | 1.7 | 6.1 | 0.00 | 0.00 | 0.00 | 56 | 1015.7 |
| 20260502123021 | 72 | 265 | 4.3 | 9.6 | 0.00 | 0.00 | 0.00 | 56 | 1017.1 |
| 20260502121515 | 72 | 276 | 4.3 | 10.4 | 0.00 | 0.00 | 0.00 | 57 | 1017.2 |
| 20260502114553 | 72 | 256 | 6.1 | 11.3 | 0.00 | 0.00 | 0.00 | 54 | 1017.4 |
| 20260502113051 | 73 | 263 | 3.5 | 11.3 | 0.00 | 0.00 | 0.00 | 50 | 1017.5 |
| 20260502111545 | 73 | 350 | 2.6 | 12.2 | 0.00 | 0.00 | 0.00 | 48 | 1017.5 |
| 20260502110045 | 74 | 250 | 4.3 | 8.7 | 0.00 | 0.00 | 0.00 | 43 | 1017.5 |
| 20260502104542 | 75 | 186 | 0.9 | 6.1 | 0.00 | 0.00 | 0.00 | 41 | 1017.6 |
| 20260502103038 | 74 | 120 | 1.7 | 7.0 | 0.00 | 0.00 | 0.00 | 42 | 1017.7 |
| 20260502101538 | 71 | 258 | 0.0 | 2.6 | 0.00 | 0.00 | 0.00 | 44 | 1017.8 |
| 20260502091522 | 66 | 260 | 0.9 | 7.0 | 0.00 | 0.00 | 0.00 | 51 | 1018.3 |
| 20260502071509 | 64 | 129 | 0.9 | 5.2 | 0.00 | 0.00 | 0.00 | 50 | 1018.3 |
| 20260502070007 | 63 | 144 | 1.7 | 3.5 | 0.00 | 0.00 | 0.00 | 50 | 1018.6 |
| 20260502064508 | 62 | 92 | 1.7 | 7.0 | 0.00 | 0.00 | 0.00 | 50 | 1018.7 |
| 20260502063100 | 61 | 220 | 0.0 | 2.6 | 0.00 | 0.00 | 0.00 | 51 | 1018.5 |
| 20260502061556 | 60 | 139 | 0.9 | 5.2 | 0.00 | 0.00 | 0.00 | 52 | 1018.3 |
| 20260502060051 | 59 | 184 | 1.7 | 3.5 | 0.00 | 0.00 | 0.00 | 53 | 1018.4 |
| 20260502054555 | 58 | 168 | 1.7 | 6.1 | 0.00 | 0.00 | 0.00 | 55 | 1018.4 |
| 20260502053042 | 57 | 142 | 0.9 | 5.2 | 0.00 | 0.00 | 0.00 | 56 | 1018.4 |
| 20260502051540 | 56 | 171 | 0.9 | 4.3 | 0.00 | 0.00 | 0.00 | 57 | 1018.5 |
| 20260502050033 | 55 | 150 | 0.9 | 5.2 | 0.00 | 0.00 | 0.00 | 58 | 1018.5 |
| 20260502044537 | 53 | 147 | 0.9 | 4.3 | 0.00 | 0.00 | 0.00 | 60 | 1018.5 |
| 20260502043028 | 53 | 145 | 0.9 | 4.3 | 0.00 | 0.00 | 0.00 | 60 | 1018.5 |
| 20260502041527 | 53 | 154 | 0.0 | 4.3 | 0.00 | 0.00 | 0.00 | 60 | 1018.6 |
| 20260502040037 | 53 | 143 | 0.0 | 2.6 | 0.00 | 0.00 | 0.00 | 60 | 1018.7 |
| 20260502034527 | 54 | 156 | 0.0 | 1.7 | 0.00 | 0.00 | 0.00 | 59 | 1018.8 |
| 20260502033021 | 54 | 198 | 0.0 | 5.2 | 0.00 | 0.00 | 0.00 | 59 | 1019.0 |
| 20260502031519 | 54 | 148 | 0.9 | 4.3 | 0.00 | 0.00 | 0.00 | 58 | 1019.0 |
| 20260502030017 | 54 | 159 | 0.9 | 6.1 | 0.00 | 0.00 | 0.00 | 58 | 1019.1 |
| 20260502024521 | 55 | 126 | 1.7 | 7.0 | 0.00 | 0.00 | 0.00 | 57 | 1019.1 |
| 20260502023014 | 55 | 128 | 1.7 | 6.1 | 0.00 | 0.00 | 0.00 | 57 | 1019.2 |